Погода в Сисси

Греция     35°18′13″N   25°31′34″E
темп.,
°C
ветер,
м/с
пор.,
м/с
влажн.,
%
обл.,
%
осадки,
мм/ч
давл.,
гПа
погр.,
м
23 апреля, пт
пт2300:00+12юз01515 0.0 102210
03:00+12ссз114077 0.0 102010
06:00+13всв2229100 0.0 102011
09:00+17всв22319 0.0 1020203
12:00+20св22360 0.0 1020637
15:00+21св22395 0.0 1019822
18:00+20всв114680 0.0 1018462
21:00+16вюв116014 0.0 101915
24 апреля, сб
сб2400:00+16юв115927 0.0 101811
03:00+15ююв0151100 0.0 101611
06:00+14св115591 0.0 101611
09:00+16всв2253100 0.0 1016132
12:00+19всв3350100 0.0 1015521
15:00+20св2353100 0.0 1013552
18:00+17св2265100 0.0 1012228
21:00+15св117968 0.0 101243
25 апреля, вс
вс2500:00+15ссз116186 0.0 101041
03:00+13ссз338857 0.1 1010228
06:00+12сз349568 0.1 1009247
09:00+13ссз669789 0.9 1010533
12:00+12ссз7896100 0.9 1011679
15:00+12сз7894100 2.3 1012861
18:00+11сз7994100 0.4 1012635
21:00+11зсз7109083 0.6 1014825
26 апреля, пн
пн2600:00+10сз7994100 0.2 1015741
03:00+10сз81090100 0.4 1014819
06:00+10сз7108988 0.2 1015805
09:00+11сз797828 0.3 1017816
12:00+13сз896810 0.0 1018872
15:00+13сз78640 0.0 1017764
18:00+12сз67672 0.0 1017626
21:00+10зсз34740 0.0 1017215
27 апреля, вт
вт2700:00+10зсз45670 0.0 1017169
03:00+10зсз23543 0.0 1016108
06:00+11сз123913 0.0 101544
09:00+16сз11305 0.0 1015148
12:00+19с113616 0.0 1015451
15:00+20с2241100 0.0 1015450
18:00+20сз024394 0.0 1013247
21:00+17ююз1147100 0.0 101413